User: anonymous   Login
Location: Asni�res
(49.1337°N, 2.3555°E)
Time: 18:02:58
(UTC+00:00)
Language:

Cosmos 1607 - Orbit

View from above orbital plane
View from above orbital plane
View from above satellite
View from above satellite

Ground track
Ground track

The orbit data is extracted from the following two-line orbital elements,

1 15378U 84112A   22018.89887089 -.00000051  00000-0  34255-4 0  9990
2 15378  64.9919 269.9121 0040984 183.3533 176.7258 13.83575744882185
Epoch (UTC): 18 January 2022 21:34:22
Eccentricity: 0.0040984
inclination: 64.9919°
perigee height: 921 km
apogee height: 981 km
right ascension of ascending node: 269.9121°
argument of perigee: 183.3533°
revolutions per day: 13.83575744
mean anomaly at epoch: 176.7258°
orbit number at epoch: 88218

The dashed part of the orbit path shows where the satellite is in the earth's shadow,  

DLR